Orange City, IA

3:56 PM CDT on April 24, 2018 (GMT -0500)
Orange City Municipal

Weather History for KORC - January, 2012

Change the Weather History Date:

Friday, January 13, 2012

  Actual Average Record
Temperature  
Mean Temperature 12 °F -  
Max Temperature 23 °F 26 °F 47 °F (1951)
Min Temperature 0 °F 10 °F -9 °F (1998)
Degree Days  
Heating Degree Days 54    
Moisture  
Dew Point 0 °F    
Average Humidity 70    
Maximum Humidity 92    
Minimum Humidity 39    
Precipitation  
Precipitation 0.00 in - - ()
Sea Level Pressure  
Sea Level Pressure 29.96 in    
Wind  
Wind Speed 8 mph (WNW)    
Max Wind Speed 12 mph    
Max Gust Speed -    
Visibility 10 miles    
Events      
Averages and records for this station are not official NWS values.
T = Trace of Precipitation, MM = Missing Value Source: NWS Daily Summary

Daily Weather History Graph

Daily Weather History Graph

Search for Another Location

Airport or City:

Astronomy

Jan. 13, 2012 Rise Set
Actual Time 7:53 AM CST 5:12 PM CST
Civil Twilight 7:22 AM CST 5:43 PM CST
Nautical Twilight 6:46 AM CST 6:19 PM CST
Astronomical Twilight 6:12 AM CST 6:53 PM CST
Moon 10:35 PM CST (1/13) 10:00 AM CST (1/13)
Length of Visible Light 10h 21m
Length of Day
9h 18m
Waning Gibbous, 78% of the Moon is Illuminated
Jan 13
Waning Gibbous
Jan 16
Last Quarter
Jan 23
New
Jan 30
First Quarter
Feb 7
Full

Hourly Weather History & Observations

Time (CST) Temp. Windchill Dew Point Humidity Pressure Visibility Wind Dir Wind Speed Gust Speed Precip Events Conditions
12:15 AM 6.8 °F -7.8 °F 1.4 °F 79% 29.93 in 10.0 mi NW 10.4 mph - N/A   Clear
12:35 AM 6.8 °F -7.8 °F 1.4 °F 79% 29.94 in 10.0 mi NW 10.4 mph - N/A   Clear
12:55 AM 6.8 °F -6.9 °F 1.4 °F 79% 29.95 in 10.0 mi NW 9.2 mph - N/A   Clear
1:15 AM 5.0 °F -10.0 °F 1.4 °F 85% 29.95 in 10.0 mi NW 10.4 mph - N/A   Clear
1:35 AM 5.0 °F -10.0 °F 1.4 °F 85% 29.95 in 10.0 mi NW 10.4 mph - N/A   Clear
1:55 AM 5.0 °F -10.0 °F -0.4 °F 78% 29.95 in 10.0 mi NW 10.4 mph - N/A   Clear
2:15 AM 3.2 °F -12.2 °F 1.4 °F 92% 29.95 in 10.0 mi NW 10.4 mph - N/A   Clear
2:35 AM 3.2 °F -13.1 °F 1.4 °F 92% 29.96 in 10.0 mi NW 11.5 mph - N/A   Clear
2:55 AM 3.2 °F -13.1 °F -0.4 °F 85% 29.96 in 10.0 mi NW 11.5 mph - N/A   Clear
3:15 AM 1.4 °F -12.5 °F -0.4 °F 92% 29.96 in 10.0 mi NW 8.1 mph - N/A   Clear
3:35 AM 1.4 °F -13.5 °F -0.4 °F 92% 29.96 in 10.0 mi WNW 9.2 mph - N/A   Clear
3:55 AM 1.4 °F -14.5 °F -0.4 °F 92% 29.96 in 10.0 mi NW 10.4 mph - N/A   Clear
4:15 AM 1.4 °F -14.5 °F -0.4 °F 92% 29.96 in 10.0 mi NW 10.4 mph - N/A   Clear
4:35 AM 1.4 °F -12.5 °F -0.4 °F 92% 29.97 in 10.0 mi NW 8.1 mph - N/A   Clear
4:55 AM 1.4 °F -13.5 °F -0.4 °F 92% 29.97 in 10.0 mi NW 9.2 mph - N/A   Clear
5:15 AM 1.4 °F -12.5 °F -0.4 °F 92% 29.97 in 10.0 mi NW 8.1 mph - N/A   Clear
5:35 AM 1.4 °F -11.3 °F -0.4 °F 92% 29.97 in 10.0 mi NW 6.9 mph - N/A   Clear
5:55 AM 1.4 °F -12.5 °F -0.4 °F 92% 29.98 in 10.0 mi NW 8.1 mph - N/A   Clear
6:15 AM 1.4 °F -9.9 °F -2.2 °F 85% 29.98 in 10.0 mi NNW 5.8 mph - N/A   Clear
6:55 AM 1.4 °F -9.9 °F -2.2 °F 85% 29.98 in 10.0 mi NNW 5.8 mph - N/A   Clear
7:15 AM 1.4 °F -12.5 °F -2.2 °F 85% 29.98 in 10.0 mi NW 8.1 mph - N/A   Clear
7:35 AM 1.4 °F - -2.2 °F 85% 29.98 in 10.0 mi Calm Calm - N/A   Clear
7:55 AM -0.4 °F - -2.2 °F 92% 29.99 in 10.0 mi Calm Calm - N/A   Clear
8:15 AM -0.4 °F -13.4 °F -2.2 °F 92% 29.98 in 10.0 mi NW 6.9 mph - N/A   Clear
8:35 AM 1.4 °F -8.3 °F -2.2 °F 85% 29.99 in 10.0 mi WNW 4.6 mph - N/A   Clear
8:55 AM 3.2 °F -4.2 °F -0.4 °F 85% 29.99 in 10.0 mi NW 3.5 mph - N/A   Clear
9:15 AM 3.2 °F -9.1 °F -0.4 °F 85% 29.99 in 10.0 mi NW 6.9 mph - N/A   Clear
9:35 AM 5.0 °F -5.6 °F -0.4 °F 78% 29.99 in 10.0 mi NNW 5.8 mph - N/A   Clear
9:55 AM 6.8 °F -4.8 °F -0.4 °F 72% 30.00 in 10.0 mi NW 6.9 mph - N/A   Clear
10:15 AM 6.8 °F -3.5 °F -0.4 °F 72% 30.00 in 10.0 mi NW 5.8 mph - N/A   Clear
10:35 AM 8.6 °F -1.3 °F -0.4 °F 67% 30.00 in 10.0 mi WNW 5.8 mph - N/A   Clear
10:55 AM 8.6 °F -1.3 °F 1.4 °F 73% 30.00 in 10.0 mi WNW 5.8 mph - N/A   Clear
11:15 AM 10.4 °F 0.8 °F 1.4 °F 67% 30.00 in 10.0 mi WNW 5.8 mph - N/A   Clear
11:35 AM 12.2 °F 1.7 °F 1.4 °F 62% 30.00 in 10.0 mi WNW 6.9 mph - N/A   Clear
11:55 AM 12.2 °F -0.2 °F 1.4 °F 62% 30.00 in 10.0 mi West 9.2 mph - N/A   Clear
12:15 PM 15.8 °F 5.1 °F 1.4 °F 53% 29.99 in 10.0 mi West 8.1 mph - N/A   Clear
12:35 PM 15.8 °F 4.2 °F 1.4 °F 53% 29.98 in 10.0 mi West 9.2 mph - N/A   Clear
1:15 PM 17.6 °F 6.4 °F 1.4 °F 49% 29.96 in 10.0 mi WNW 9.2 mph - N/A   Clear
1:35 PM 17.6 °F 6.4 °F 1.4 °F 49% 29.95 in 10.0 mi West 9.2 mph - N/A   Clear
1:55 PM 19.4 °F 10.4 °F -0.4 °F 42% 29.94 in 10.0 mi West 6.9 mph - N/A   Clear
2:15 PM 19.4 °F 11.5 °F -0.4 °F 42% 29.93 in 10.0 mi West 5.8 mph - N/A   Clear
2:35 PM 19.4 °F 8.6 °F -0.4 °F 42% 29.94 in 10.0 mi West 9.2 mph - N/A   Clear
2:55 PM 21.2 °F 11.7 °F -0.4 °F 39% 29.94 in 10.0 mi West 8.1 mph - N/A   Clear
3:15 PM 21.2 °F 11.7 °F -0.4 °F 39% 29.94 in 10.0 mi West 8.1 mph - N/A   Clear
3:35 PM 23.0 °F 14.7 °F 1.4 °F 39% 29.94 in 10.0 mi West 6.9 mph - N/A   Clear
3:55 PM 21.2 °F 10.9 °F 1.4 °F 42% 29.94 in 10.0 mi West 9.2 mph - N/A   Clear
4:15 PM 21.2 °F 12.6 °F -0.4 °F 39% 29.94 in 10.0 mi WSW 6.9 mph - N/A   Clear
4:35 PM 21.2 °F 11.7 °F -0.4 °F 39% 29.94 in 10.0 mi West 8.1 mph - N/A   Scattered Clouds
4:55 PM 19.4 °F 11.5 °F -0.4 °F 42% 29.93 in 10.0 mi WSW 5.8 mph - N/A   Mostly Cloudy
5:15 PM 19.4 °F 14.3 °F 1.4 °F 46% 29.92 in 10.0 mi SW 3.5 mph - N/A   Mostly Cloudy
5:35 PM 21.2 °F 14.9 °F 1.4 °F 42% 29.94 in 10.0 mi SW 4.6 mph - N/A   Overcast
5:55 PM 21.2 °F 13.6 °F 1.4 °F 42% 29.94 in 10.0 mi SSW 5.8 mph - N/A   Overcast
6:15 PM 21.2 °F 13.6 °F 1.4 °F 42% 29.92 in 10.0 mi SSW 5.8 mph - N/A   Overcast
6:35 PM 19.4 °F 12.8 °F 1.4 °F 46% 29.92 in 10.0 mi South 4.6 mph - N/A   Mostly Cloudy
6:55 PM 19.4 °F - 1.4 °F 46% 29.92 in 10.0 mi Calm Calm - N/A   Overcast
7:15 PM 19.4 °F - 1.4 °F 46% 29.92 in 10.0 mi Calm Calm - N/A   Overcast
7:55 PM 19.4 °F 14.3 °F 1.4 °F 46% 29.91 in 10.0 mi SSE 3.5 mph - N/A   Overcast
8:15 PM 19.4 °F 14.3 °F 1.4 °F 46% 29.91 in 10.0 mi SSE 3.5 mph - N/A   Overcast
8:55 PM 19.4 °F 14.3 °F 3.2 °F 49% 29.90 in 10.0 mi SSE 3.5 mph - N/A   Overcast
9:15 PM 19.4 °F 11.5 °F 6.8 °F 58% 29.90 in 7.0 mi South 5.8 mph - N/A Snow Light Snow
9:55 PM 19.4 °F 14.3 °F 12.2 °F 74% 29.88 in 7.0 mi SSE 3.5 mph - N/A Snow Light Snow
10:35 PM 19.4 °F 14.3 °F 17.6 °F 93% 29.88 in 2.5 mi SSE 3.5 mph - N/A Snow Light Snow
10:55 PM 19.4 °F 12.8 °F 17.6 °F 93% 29.88 in 4.0 mi South 4.6 mph - N/A Snow Light Snow
11:15 PM 19.4 °F 12.8 °F 19.4 °F 100% 29.88 in 5.0 mi South 4.6 mph - N/A Snow Light Snow
11:35 PM 19.4 °F 14.3 °F 19.4 °F 100% 29.87 in 4.0 mi SSE 3.5 mph - N/A Snow Light Snow
11:55 PM 21.2 °F 16.4 °F 19.4 °F 93% 29.88 in 4.0 mi SE 3.5 mph - N/A Snow Light Snow